Voltar ao catálogo

STARLINK-5702

AtivoComunicaçõesVLEO
NORAD 55622·PAYLOAD·🇺🇸 United States

Lançado Feb 12, 2023 de Cape Canaveral Space Force Station

Loading…

Próximas Passagens (próximas 24 horas)

TLE

AtualizadoSource: CelesTrak SupGP

Época: Sep 14, 2026, 20:53 UTC

1 55622C 23020BF  26257.87062500 -.00010977  00000+0 -39748-3 0  2573
2 55622  43.0040   5.8542 0001730 275.3251  20.8438 15.27591516    11

Acompanhe STARLINK-5702 em tempo real com AllMySat

Download on the App Store